Regional Weather Roundup
Issued by NWS

Home | Current Version | Previous Version | Graphics & Text | Print | Product List | Glossary On
Versions: 1 2 3 4 5 6 7 8 9 10 11 12 13 14 15 16 17 18 19 20 21 22 23 24 25 26 27 28 29 30 31 32 33 34 35 36 37 38 39 40 41 42 43 44 45 46 47 48 49 50
000
ASUS45 KBOU 241710
RWRCO

WEATHER ROUNDUP FOR COLORADO
NATIONAL WEATHER SERVICE DENVER/BOULDER CO
1100 AM MDT SAT SEP 24 2016

NOTE: "FAIR" INDICATES FEW OR NO CLOUDS BELOW 12000 FEET WITH NO
SIGNIFICANT WEATHER AND/OR OBSTRUCTIONS TO VISIBILITY.

COZ001>005-013-030-031-241800-
...NORTHWEST COLORADO...

CITY           SKY/WX    TMP DP  RH WIND       PRES   REMARKS
CRAIG          LGT RAIN  45  38  76 SW15      30.17R
HAYDEN         CLOUDY    43  34  70 SW12      30.16R
MEEKER         CLOUDY    43  39  86 SW9       30.18R
MOUNT WERNER   NOT AVBL
STEAMBOAT SPGS CLOUDY    39  37  92 E6        30.16S
WALDEN           N/A     41  30  65 S16G26    30.14R
$$

COZ006>008-011-241800-
...WEST CENTRAL VALLEYS...

CITY           SKY/WX    TMP DP  RH WIND       PRES   REMARKS
GRAND JUNCTION CLOUDY    52  43  71 SE5       30.18R
MONTROSE       CLOUDY    47  40  76 W5        30.23R
EAGLE          CLOUDY    41  39  93 CALM      30.22R
RIFLE          LGT RAIN  43  42  97 E10       30.20R
DELTA          CLOUDY    53  42  67 E6        30.21R
NUCLA          CLOUDY    52  34  50 W10       30.26R
$$

COZ017>023-064>068-241800-
...SOUTHWEST COLORADO...

CITY           SKY/WX    TMP DP  RH WIND       PRES   REMARKS
DURANGO        PTSUNNY   52  36  54 SW6       30.23R
CORTEZ         CLOUDY    51  37  58 CALM      30.23R
PAGOSA SPRINGS FAIR      47  30  51 CALM      30.26R
TELLURIDE      CLOUDY    38  31  76 CALM      30.32R
WOLF CREEK PAS FAIR      30  28  93 MISG      30.38R
$$

COZ009-010-012-014-032>034-037-058>063-241800-
...CENTRAL COLORADO...

CITY           SKY/WX    TMP DP  RH WIND       PRES   REMARKS
ASPEN          PTSUNNY   44  34  67 W3        30.20R
BUENA VISTA    CLOUDY    47  25  40 NW7       30.18S
COPPER MTN     CLOUDY    34  25  69 W16G23    30.27R WCI  23
BERTHOUD PASS  CLOUDY    23   9  54 NW20G28   30.23R WCI   8
COTTONWOOD PAS CLOUDY    43  25  49 W14G24    30.22R
GUNNISON       CLOUDY    37  32  82 S5        30.26R
KREMMLING      PTSUNNY   45  32  61 W15G22    30.18S
LEADVILLE      CLOUDY    38  23  55 NW8G20    30.21R
MONARCH PASS   FOG       25  23  93 W41G49    30.36S VSB<1/4 WCI   5
SALIDA         CLOUDY    50  28  42 SW9G16    30.26R
SUNLIGHT       SNOW      32  32 100 S7G16     30.30R VSB 1/4 WCI  26
WILKERSON PASS FAIR      37  23  56 SW10G21   30.26R
$$

COZ069>075-241800-
...SAN LUIS VALLEY/SANGRE DE CRISTO MOUNTAINS...

CITY           SKY/WX    TMP DP  RH WIND       PRES   REMARKS
ALAMOSA        FAIR      40  36  86 CALM      30.21S
LA VETA PASS   FAIR      39  27  60 MISG      30.25R
SAGUACHE       NOT AVBL
$$

COZ035-036-038>040-241800-
...NORTHERN COLORADO FRONT RANGE...

CITY           SKY/WX    TMP DP  RH WIND       PRES   REMARKS
DENVER INTL AP FAIR      64  21  19 S12       30.03R
DMNS CITY PARK   N/A     64  24  21 E8G15     30.03S
AURORA         MOSUNNY   63  23  21 SW12G18   30.04S
FRONT RANGE AP MOSUNNY   66  21  18 SW7       30.05R
ERIE MUNI ARPT FAIR      63  25  23 SE9       30.02S
BOULDER MUN AP FAIR      61  32  33 E6        30.01F
CENTENNIAL     FAIR      62  22  21 SW13      30.04S
BROOMFIELD     MOSUNNY   61  36  39 SE8       30.05R
FORT COLLINS   FAIR      57  37  47 SE10      30.02F
LONGMONT       FAIR      61  40  45 E9        30.03S
$$

COZ041-046-047-076>085-087-088-241800-
...PIKES PEAK/PALMER DIVIDE AND SOUTHERN FOOTHILLS...

CITY           SKY/WX    TMP DP  RH WIND       PRES   REMARKS
COLO. SPRINGS  FAIR      59  23  25 VRB5      30.09F
A. F. ACADEMY  FAIR      59  21  23 S7        30.08S
SCHRIEVER AFB  NOT AVBL
ELLICOTT       FAIR     N/A N/A N/A W8G20     30.07S
FALCON         FAIR      58  21  24 S7        30.11F
FORT CARSON    FAIR      62  23  22 VRB3      30.05F
LIMON          FAIR      62  28  27 S8        30.05F
MONUMENT HILL  FAIR      55  21  26 SW13G22   30.11R
TRINIDAD       FAIR      62  24  23 CALM      30.08R
$$

COZ042>045-048>051-090-091-241800-
...NORTHEAST COLORADO...

CITY           SKY/WX    TMP DP  RH WIND       PRES   REMARKS
GREELEY ARPT   FAIR      61  41  48 S10       30.03F
AKRON          FAIR      63  33  32 SW7       30.03S
BURLINGTON     FAIR      62  41  46 N5        30.04F
WRAY           FAIR      64  39  39 S3        30.01F
STERLING       FAIR      63  37  39 SW10      30.01S
HOLYOKE        FAIR      66  39  37 W3        30.01S
FORT MORGAN    FAIR      61  34  36 SE8       30.04S
$$

COZ086-089-092>099-241800-
...SOUTHEAST COLORADO...

CITY           SKY/WX    TMP DP  RH WIND       PRES   REMARKS
PUEBLO         FAIR      68  21  16 VRB3      30.03F
LA JUNTA       FAIR      65  32  29 SE5       30.04R
LAMAR          FAIR      64  42  44 E8        30.02S
SPRINGFIELD    NOT AVBL
$$



USA.gov is the U.S. government's official web portal to all federal, state and local government web resources and services.